Martinsburg, WV

11:25 PM EST on February 23, 2018 (GMT -0500)
Eastern W Va Regional-Shepherd

Weather History for KMRB - July, 2013

Change the Weather History Date:

Saturday, July 13, 2013

  Actual Average Record
Temperature  
Mean Temperature 76 °F 75 °F  
Max Temperature 83 °F 86 °F 101 °F (1935)
Min Temperature 68 °F 64 °F 51 °F (1963)
Degree Days  
Heating Degree Days 0 0  
Month to date heating degree days 0 0  
Since 1 June heating degree days 2 24  
Since 1 July heating degree days 0 0  
Cooling Degree Days 11 10  
Month to date cooling degree days 159 126  
Year to date cooling degree days 498 366  
Since 1 June cooling degree days 387 309  
Growing Degree Days 25 (Base 50)    
Moisture  
Dew Point 67 °F    
Average Humidity 78    
Maximum Humidity 93    
Minimum Humidity 62    
Precipitation  
Precipitation 0.01 in 0.12 in 2.06 in (2008)
Month to date precipitation 1.65 1.49  
Year to date precipitation 16.91 20.98  
Sea Level Pressure  
Sea Level Pressure 30.16 in    
Wind  
Wind Speed 3 mph (NW)    
Max Wind Speed 9 mph    
Max Gust Speed 14 mph    
Visibility 9 miles    
Events Rain    
T = Trace of Precipitation, MM = Missing Value Source: NWS Daily Summary

Daily Weather History Graph

Daily Weather History Graph

Search for Another Location

Airport or City:

Trip Planner

Search our weather history database for the weather conditions in past years. The results will help you decide how hot, cold, wet, or windy it might be!

Date:

Astronomy

Jul. 13, 2013 Rise Set
Actual Time 5:56 AM EDT 8:38 PM EDT
Civil Twilight 5:24 AM EDT 9:10 PM EDT
Nautical Twilight 4:45 AM EDT 9:49 PM EDT
Astronomical Twilight 4:00 AM EDT 10:34 PM EDT
Moon 11:08 AM EDT (7/13) 11:20 PM EDT (7/13)
Length of Visible Light 15h 45m
Length of Day
14h 42m
Waxing Crescent, 25% of the Moon is Illuminated
Jul 13
Waxing Crescent
Jul 15
First Quarter
Jul 22
Full
Jul 29
Last Quarter
Aug 6
New

Hourly Weather History & Observations

Time (EDT) Temp. Heat Index Dew Point Humidity Pressure Visibility Wind Dir Wind Speed Gust Speed Precip Events Conditions
12:31 AM 71.6 °F - 64.4 °F 78% 30.10 in 10.0 mi NNW 4.6 mph - N/A   Overcast
12:53 AM 71.1 °F - 64.9 °F 81% 30.08 in 10.0 mi North 5.8 mph - N/A   Overcast
1:00 AM 71.6 °F - 64.4 °F 78% 30.08 in 10.0 mi NNE 9.2 mph - N/A   Overcast
1:53 AM 70.0 °F - 64.9 °F 84% 30.07 in 10.0 mi NNW 3.5 mph - N/A   Overcast
2:53 AM 70.0 °F - 64.9 °F 84% 30.08 in 10.0 mi North 3.5 mph - N/A   Overcast
3:37 AM 69.8 °F - 66.2 °F 88% 30.08 in 5.0 mi NNW 5.8 mph - 0.00 in Rain Light Rain
3:53 AM 68.0 °F - 66.0 °F 93% 30.08 in 8.0 mi NNW 5.8 mph - 0.00 in   Overcast
4:42 AM 68.0 °F - 66.2 °F 94% 30.10 in 4.0 mi WNW 4.6 mph - 0.01 in Rain Light Rain
4:53 AM 68.0 °F - 66.0 °F 93% 30.09 in 3.0 mi NW 4.6 mph - 0.01 in Rain Light Rain
5:08 AM 68.0 °F - 66.2 °F 94% 30.09 in 3.0 mi NW 5.8 mph - 0.00 in Rain Light Rain
5:39 AM 68.0 °F - 66.2 °F 94% 30.09 in 10.0 mi North 3.5 mph - 0.00 in   Overcast
5:53 AM 68.0 °F - 66.0 °F 93% 30.09 in 10.0 mi NNW 4.6 mph - 0.00 in   Overcast
6:53 AM 69.1 °F - 66.0 °F 90% 30.12 in 7.0 mi NW 3.5 mph - N/A   Overcast
7:53 AM 69.1 °F - 66.9 °F 93% 30.14 in 10.0 mi Calm Calm - N/A   Overcast
8:53 AM 71.1 °F - 66.9 °F 87% 30.15 in 10.0 mi Calm Calm - N/A   Overcast
9:38 AM 71.6 °F - 66.2 °F 83% 30.18 in 10.0 mi Calm Calm - N/A   Overcast
9:53 AM 71.1 °F - 66.9 °F 87% 30.17 in 10.0 mi Calm Calm - N/A   Overcast
10:53 AM 73.0 °F - 68.0 °F 84% 30.19 in 10.0 mi South 3.5 mph - N/A   Overcast
11:00 AM 73.4 °F - 68.0 °F 83% 30.20 in 10.0 mi South 4.6 mph - N/A   Overcast
11:30 AM 73.4 °F - 68.0 °F 83% 30.21 in 10.0 mi South 4.6 mph - N/A   Overcast
11:53 AM 75.9 °F - 69.1 °F 79% 30.20 in 10.0 mi SW 4.6 mph - N/A   Overcast
12:53 PM 78.1 °F - 66.9 °F 68% 30.19 in 10.0 mi WSW 3.5 mph - N/A   Overcast
1:53 PM 79.0 °F - 66.0 °F 64% 30.19 in 10.0 mi Variable 3.5 mph - N/A   Partly Cloudy
2:53 PM 81.0 °F 83.3 °F 66.9 °F 62% 30.19 in 10.0 mi SE 6.9 mph - N/A   Mostly Cloudy
3:53 PM 81.0 °F 83.0 °F 66.0 °F 60% 30.19 in 10.0 mi Calm Calm - N/A   Scattered Clouds
4:53 PM 81.0 °F 83.3 °F 66.9 °F 62% 30.19 in 10.0 mi SE 4.6 mph - N/A   Overcast
5:53 PM 82.0 °F 85.5 °F 69.1 °F 65% 30.19 in 10.0 mi ESE 4.6 mph - N/A   Scattered Clouds
6:53 PM 81.0 °F 83.8 °F 68.0 °F 65% 30.20 in 10.0 mi SE 3.5 mph - N/A   Overcast
7:53 PM 79.0 °F - 70.0 °F 74% 30.22 in 10.0 mi Calm Calm - N/A   Overcast
8:53 PM 78.1 °F - 69.1 °F 74% 30.22 in 10.0 mi Calm Calm - N/A   Mostly Cloudy
9:53 PM 75.9 °F - 71.1 °F 85% 30.25 in 10.0 mi Calm Calm - N/A   Overcast
10:53 PM 73.9 °F - 70.0 °F 87% 30.27 in 10.0 mi Calm Calm - N/A   Scattered Clouds
11:53 PM 73.0 °F - 70.0 °F 90% 30.27 in 10.0 mi Calm Calm - N/A   Clear